Date String (YYYY-MM-DD hh:mm:ss) UTC,Instrument flags,Ambient pressure (hPa),Sample flow (lpm),Bypass flow (lpm),Sample temperature (°C),Ambient temperature (°C),ASC tube jacket temperature (°C),LED temperature (°C),Box temperature (°C),Sample RH (%),Span deviation,Mass concentration (μg/m³),Mass concentration (μg/m³),Mass concentration (μg/m³)
DateTimeUTC,F1_M11,P_M11,Q1_M11,Q2_M11,T1_M11,T2_M11,T3_M11,T4_M11,T5_M11,U1_M11,ZSPAN_M11,X0_M11,X2_M11,X1_M11
2022-09-05 08:00:00,,0826.4,5.01,0.00,30.1,28.9,00.0,38.8,31.9,13.5,0000.0,0011.29,0006.59,0005.89
2022-09-05 08:01:00,,0826.4,5.01,0.00,30.1,28.9,00.0,38.8,31.9,13.5,0000.0,0011.04,0006.54,0005.85
2022-09-05 08:02:00,,0826.4,4.98,0.00,30.1,29.0,00.0,38.8,32.0,13.7,0000.0,0011.12,0006.52,0005.83
2022-09-05 08:03:00,,0826.4,5.00,0.00,30.1,29.0,00.0,38.8,32.0,13.8,0000.0,0010.92,0006.49,0005.82
2022-09-05 08:04:00,,0826.4,5.01,0.00,30.1,29.1,00.0,38.9,32.0,13.7,0000.0,0011.27,0006.47,0005.82
2022-09-05 08:05:00,,0826.4,5.00,0.00,30.2,29.1,00.0,38.9,32.0,13.7,0000.0,0012.52,0006.45,0005.82
2022-09-05 08:06:00,,0826.4,4.99,0.00,30.2,29.1,00.0,38.9,32.0,13.5,0000.0,0012.48,0006.43,0005.81
2022-09-05 08:07:00,,0826.4,4.99,0.00,30.2,29.1,00.0,38.9,32.1,13.3,0000.0,0012.52,0006.44,0005.81
2022-09-05 08:08:00,,0826.4,5.01,0.00,30.2,29.2,00.0,38.9,32.1,13.1,0000.0,0013.14,0006.44,0005.81
2022-09-05 08:09:00,,0826.3,5.02,0.00,30.3,29.2,00.0,39.0,32.1,13.0,0000.0,0013.19,0006.45,0005.79
2022-09-05 08:10:00,,0826.3,4.98,0.00,30.3,29.0,00.0,39.0,32.1,12.9,0000.0,0013.12,0006.45,0005.77
2022-09-05 08:11:00,,0826.3,5.01,0.00,30.3,27.7,00.0,39.0,32.0,13.0,0000.0,0012.50,0006.40,0005.74
2022-09-05 08:12:00,,0826.3,5.00,0.00,30.2,27.0,00.0,38.9,32.0,13.0,0000.0,0012.85,0006.40,0005.74
2022-09-05 08:13:00,,0826.3,5.01,0.00,30.2,27.1,00.0,38.9,31.9,13.1,0000.0,0014.16,0006.41,0005.73
2022-09-05 08:14:00,,0826.2,5.00,0.00,30.1,27.4,00.0,38.9,31.7,13.3,0000.0,0014.48,0006.41,0005.72
2022-09-05 08:15:00,,0826.3,4.99,0.00,30.0,27.7,00.0,38.8,31.7,13.5,0000.0,0014.59,0006.43,0005.71
2022-09-05 08:16:00,,0826.3,5.00,0.00,30.0,28.0,00.0,38.8,31.7,13.8,0000.0,0013.04,0006.45,0005.71
2022-09-05 08:17:00,,0826.2,5.00,0.00,30.0,28.2,00.0,38.8,31.8,13.9,0000.0,0013.84,0006.45,0005.71
2022-09-05 08:18:00,,0826.4,5.01,0.00,30.0,28.4,00.0,38.8,31.8,13.8,0000.0,0014.23,0006.47,0005.72
2022-09-05 08:19:00,,0826.2,5.00,0.00,30.0,28.5,00.0,38.8,31.8,13.7,0000.0,0013.90,0006.51,0005.74
2022-09-05 08:20:00,,0826.2,5.00,0.00,30.0,28.6,00.0,38.8,31.9,13.6,0000.0,0013.91,0006.55,0005.77
2022-09-05 08:21:00,,0826.2,4.98,0.00,30.0,28.7,00.0,38.8,31.9,13.6,0000.0,0013.93,0006.55,0005.79
2022-09-05 08:22:00,,0826.2,5.00,0.00,30.1,28.8,00.0,38.8,31.9,13.5,0000.0,0013.92,0006.57,0005.81
2022-09-05 08:23:00,,0826.2,5.01,0.00,30.1,28.8,00.0,38.8,31.9,13.4,0000.0,0013.76,0006.59,0005.82
2022-09-05 08:24:00,,0826.2,4.99,0.00,30.1,28.9,00.0,38.8,31.9,13.4,0000.0,0012.80,0006.59,0005.82
2022-09-05 08:25:00,,0826.3,5.00,0.00,30.1,29.0,00.0,38.9,32.0,13.4,0000.0,0012.51,0006.57,0005.83
2022-09-05 08:26:00,,0826.3,5.01,0.00,30.1,29.0,00.0,38.9,32.0,13.4,0000.0,0012.22,0006.55,0005.83
2022-09-05 08:27:00,,0826.4,5.01,0.00,30.2,29.0,00.0,38.9,32.0,13.6,0000.0,0012.29,0006.52,0005.84
2022-09-05 08:28:00,,0826.4,4.99,0.00,30.2,29.1,00.0,38.9,32.0,14.1,0000.0,0011.50,0006.54,0005.86
2022-09-05 08:29:00,,0826.4,5.01,0.00,30.2,29.1,00.0,38.9,32.0,14.3,0000.0,0011.38,0006.55,0005.89
2022-09-05 08:30:00,,0826.3,5.00,0.00,30.2,29.1,00.0,39.0,32.1,14.1,0000.0,0011.33,0006.53,0005.91
2022-09-05 08:31:00,,0826.3,4.98,0.00,30.2,29.2,00.0,39.0,32.1,13.9,0000.0,0011.05,0006.51,0005.94
2022-09-05 08:32:00,,0826.3,5.01,0.00,30.3,29.2,00.0,39.0,32.1,13.8,0000.0,0011.03,0006.52,0005.97
2022-09-05 08:33:00,,0826.3,5.01,0.00,30.3,29.2,00.0,39.0,32.1,13.6,0000.0,0011.60,0006.57,0006.00
2022-09-05 08:34:00,,0826.3,4.99,0.00,30.3,28.4,00.0,39.0,32.1,13.6,0000.0,0011.76,0006.58,0006.03
2022-09-05 08:35:00,,0826.3,5.00,0.00,30.3,27.2,00.0,39.0,32.0,13.9,0000.0,0011.26,0006.63,0006.09
2022-09-05 08:36:00,,0826.2,5.00,0.00,30.2,27.1,00.0,38.9,32.0,14.1,0000.0,0011.16,0006.70,0006.15
2022-09-05 08:37:00,,0826.2,5.02,0.00,30.1,27.3,00.0,38.9,31.8,14.1,0000.0,0011.36,0006.78,0006.19
2022-09-05 08:38:00,,0826.3,5.00,0.00,30.1,27.6,00.0,38.9,31.7,14.1,0000.0,0011.44,0006.82,0006.22
2022-09-05 08:39:00,,0826.2,5.00,0.00,30.1,27.9,00.0,38.9,31.7,14.1,0000.0,0011.59,0006.87,0006.22
2022-09-05 08:40:00,,0826.3,4.99,0.00,30.0,28.1,00.0,38.8,31.8,14.1,0000.0,0011.35,0006.90,0006.22
2022-09-05 08:41:00,,0826.3,5.00,0.00,30.0,28.3,00.0,38.8,31.8,14.1,0000.0,0011.34,0006.94,0006.22
2022-09-05 08:42:00,,0826.3,5.00,0.00,30.0,28.4,00.0,38.8,31.8,14.1,0000.0,0011.39,0006.96,0006.21
2022-09-05 08:43:00,,0826.3,5.01,0.00,30.0,28.6,00.0,38.8,31.8,14.1,0000.0,0011.37,0006.99,0006.21
2022-09-05 08:44:00,,0826.3,5.01,0.00,30.0,28.7,00.0,38.8,31.9,14.0,0000.0,0010.86,0006.98,0006.21
2022-09-05 08:45:00,,0826.3,4.98,0.00,30.1,28.7,00.0,38.8,31.9,13.9,0000.0,0010.69,0006.98,0006.21
2022-09-05 08:46:00,,0826.3,5.01,0.00,30.1,28.8,00.0,38.9,31.9,13.9,0000.0,0010.95,0006.98,0006.19
2022-09-05 08:47:00,,0826.3,5.01,0.00,30.1,28.9,00.0,38.9,31.9,13.7,0000.0,0011.10,0006.93,0006.16
2022-09-05 08:48:00,,0826.4,4.98,0.00,30.1,28.9,00.0,38.9,32.0,13.5,0000.0,0010.98,0006.87,0006.12
2022-09-05 08:49:00,,0826.4,5.01,0.00,30.1,29.0,00.0,38.9,32.0,13.8,0000.0,0010.82,0006.85,0006.09
2022-09-05 08:50:00,,0826.4,5.00,0.00,30.2,29.0,00.0,38.9,32.0,14.2,0000.0,0010.70,0006.81,0006.07
2022-09-05 08:51:00,,0826.4,5.00,0.00,30.2,29.1,00.0,38.9,32.0,14.1,0000.0,0010.90,0006.80,0006.06
2022-09-05 08:52:00,,0826.4,4.98,0.00,30.2,29.1,00.0,39.0,32.1,14.0,0000.0,0011.36,0006.78,0006.04
2022-09-05 08:53:00,,0826.4,5.00,0.00,30.2,29.2,00.0,39.0,32.1,13.8,0000.0,0011.47,0006.78,0006.02
2022-09-05 08:54:00,,0826.5,5.01,0.00,30.3,29.2,00.0,39.0,32.1,13.8,0000.0,0011.52,0006.79,0006.01
2022-09-05 08:55:00,,0826.5,5.01,0.00,30.3,29.3,00.0,39.0,32.2,13.8,0000.0,0012.27,0006.83,0006.01
2022-09-05 08:56:00,,0826.5,4.98,0.00,30.3,29.3,00.0,39.0,32.2,13.9,0000.0,0012.50,0006.86,0006.01
2022-09-05 08:57:00,,0826.5,5.00,0.00,30.3,28.5,00.0,39.0,32.1,13.9,0000.0,0012.72,0006.81,0006.01
2022-09-05 08:58:00,,0826.4,5.00,0.00,30.3,27.2,00.0,39.0,32.0,13.8,0000.0,0012.49,0006.82,0006.02
2022-09-05 08:59:00,,0826.4,4.99,0.00,30.2,27.1,00.0,39.0,32.0,13.9,0000.0,0013.19,0006.85,0006.04
